Temp: 3.1°C   Baro: 1031.9mb
  Wind: 0.0mph   Dir: WNW (296°)
  Rain: 0.0mm (0.0mm/hr)
  Solar: 0W/m2  Hum: 90%
 
Bath Spa Weather Station Historical Data
 
Daily Summary for April 14, 2021 Units:  Metric    English   Both
Daily Weekly Monthly Yearly Custom
  Current: High: Low: Average:
Temperature: 3.1 °C 6.2 °C 2.8 °C 4.3 °C
Dew Point: 2.1 °C 4.2 °C 1.8 °C 2.9 °C
Humidity: 90% 90% 84% 88%
Wind Speed: 0km/h 2.6km/h 0km/h 0km/h
Wind Gust: 0km/h 4.8km/h - -
WindCalm - - WNW
Pressure: 1031.7 hPa 1032.1 hPa 1031.7 hPa -
Precipitation: 0 mm      
Historical Graphs
 
 
Tabular Data for April 14, 2021
Time Temperature Dew Point Pressure Wind Wind Speed Wind Gust Humidity Rainfall Rate (Hourly) solar
00:04 6.2 °C 4.2 °C 1032.1 hPa Calm     84% 0 mm 0 W/m2
00:09 6.1 °C 4.1 °C 1032.1 hPa Calm     84% 0 mm 0 W/m2
00:14 6.1 °C 4.1 °C 1032.1 hPa Calm     84% 0 mm 0 W/m2
00:19 6.1 °C 4.1 °C 1032.1 hPa Calm     84% 0 mm 0 W/m2
00:24 6 °C 4 °C 1032.1 hPa Calm     84% 0 mm 0 W/m2
00:29 6 °C 4.2 °C 1032.1 hPa Calm     84.8% 0 mm 0 W/m2
00:34 5.9 °C 4.1 °C 1032.1 hPa Calm     85% 0 mm 0 W/m2
00:39 5.9 °C 4.1 °C 1032.1 hPa Calm     85% 0 mm 0 W/m2
00:44 5.8 °C 4.1 °C 1032.1 hPa Calm     85% 0 mm 0 W/m2
00:49 5.8 °C 4 °C 1032.1 hPa Calm     85% 0 mm 0 W/m2
00:54 5.7 °C 3.9 °C 1032.1 hPa Calm     85% 0 mm 0 W/m2
00:59 5.7 °C 3.9 °C 1032.1 hPa Calm     85.2% 0 mm 0 W/m2
01:04 5.7 °C 3.9 °C 1032.1 hPa Calm     85.8% 0 mm 0 W/m2
01:09 5.5 °C 3.7 °C 1032.1 hPa Calm     85.2% 0 mm 0 W/m2
01:14 5.4 °C 3.7 °C 1032.1 hPa Calm     86% 0 mm 0 W/m2
01:19 5.3 °C 3.6 °C 1032.1 hPa Calm     86% 0 mm 0 W/m2
01:24 5.3 °C 3.6 °C 1032.1 hPa Calm     86% 0 mm 0 W/m2
01:29 5.3 °C 3.6 °C 1032.1 hPa Calm     86% 0 mm 0 W/m2
01:34 5.3 °C 3.7 °C 1031.7 hPa Calm     86.8% 0 mm 0 W/m2
01:39 5.3 °C 3.8 °C 1031.7 hPa Calm     87% 0 mm 0 W/m2
01:44 5.3 °C 3.8 °C 1031.7 hPa Calm     87% 0 mm 0 W/m2
01:49 5.3 °C 3.8 °C 1031.7 hPa Calm     87% 0 mm 0 W/m2
01:54 5.2 °C 3.7 °C 1031.7 hPa Calm     87% 0 mm 0 W/m2
01:59 5.1 °C 3.6 °C 1031.7 hPa Calm     87% 0 mm 0 W/m2
02:04 4.9 °C 3.4 °C 1031.7 hPa Calm     87% 0 mm 0 W/m2
02:09 4.8 °C 3.3 °C 1031.7 hPa Calm     87% 0 mm 0 W/m2
02:14 4.8 °C 3.3 °C 1031.7 hPa Calm     87% 0 mm 0 W/m2
02:19 4.7 °C 3.2 °C 1031.7 hPa Calm     87% 0 mm 0 W/m2
02:24 4.6 °C 3.1 °C 1031.7 hPa Calm     87% 0 mm 0 W/m2
02:29 4.6 °C 3.3 °C 1031.7 hPa Calm     88% 0 mm 0 W/m2
02:34 4.4 °C 3.2 °C 1031.7 hPa Calm     88% 0 mm 0 W/m2
02:38 4.3 °C 3.1 °C 1031.7 hPa Calm     88% 0 mm 0 W/m2
02:44 4.3 °C 3 °C 1031.7 hPa Calm     88% 0 mm 0 W/m2
02:49 4.2 °C 2.9 °C 1031.7 hPa Calm     88% 0 mm 0 W/m2
02:54 4.2 °C 2.9 °C 1031.7 hPa Calm     88% 0 mm 0 W/m2
02:59 4.1 °C 2.8 °C 1031.7 hPa Calm     88% 0 mm 0 W/m2
03:04 3.9 °C 2.7 °C 1031.7 hPa Calm     88% 0 mm 0 W/m2
03:09 3.9 °C 2.6 °C 1031.7 hPa Calm     88.2% 0 mm 0 W/m2
03:14 3.9 °C 2.6 °C 1031.7 hPa Calm     88.2% 0 mm 0 W/m2
03:19 3.8 °C 2.7 °C 1032.1 hPa Calm     89% 0 mm 0 W/m2
03:24 3.8 °C 2.6 °C 1032.1 hPa Calm     89% 0 mm 0 W/m2
03:29 3.7 °C 2.5 °C 1032.1 hPa Calm     89% 0 mm 0 W/m2
03:34 3.6 °C 2.5 °C 1032.1 hPa Calm     89% 0 mm 0 W/m2
03:39 3.6 °C 2.5 °C 1032.1 hPa Calm     89% 0 mm 0 W/m2
03:44 3.4 °C 2.3 °C 1032.1 hPa Calm     89% 0 mm 0 W/m2
03:49 3.4 °C 2.3 °C 1032.1 hPa Calm     89% 0 mm 0 W/m2
03:54 3.4 °C 2.3 °C 1032.1 hPa WNW 2.6 km/h 4.8 km/h 89% 0 mm 0 W/m2
03:59 3.4 °C 2.3 °C 1032.1 hPa WNW 0.3 km/h 3.2 km/h 89% 0 mm 0 W/m2
04:04 3.3 °C 2.2 °C 1032.1 hPa Calm     89% 0 mm 0 W/m2
04:09 3.3 °C 2.2 °C 1032.1 hPa Calm     89% 0 mm 0 W/m2
04:14 3.2 °C 2.2 °C 1031.7 hPa Calm     89% 0 mm 0 W/m2
04:19 3 °C 1.9 °C 1031.7 hPa Calm     89% 0 mm 0 W/m2
04:24 2.8 °C 1.8 °C 1031.7 hPa Calm     89% 0 mm 0 W/m2
04:29 2.8 °C 1.8 °C 1031.7 hPa Calm     89.4% 0 mm 0 W/m2
04:34 2.8 °C 1.8 °C 1031.7 hPa Calm     90% 0 mm 0 W/m2
04:39 2.8 °C 1.8 °C 1031.7 hPa Calm     90% 0 mm 0 W/m2
04:44 2.8 °C 1.8 °C 1031.7 hPa Calm     90% 0 mm 0 W/m2
04:49 2.8 °C 1.8 °C 1031.7 hPa Calm     90% 0 mm 0 W/m2
04:54 2.9 °C 1.9 °C 1031.7 hPa Calm     90% 0 mm 0 W/m2
04:59 2.9 °C 1.9 °C 1031.7 hPa Calm     90% 0 mm 0 W/m2
05:04 2.9 °C 1.9 °C 1031.7 hPa Calm     90% 0 mm 0 W/m2
05:09 3.1 °C 2.1 °C 1031.7 hPa Calm     90% 0 mm 0 W/m2
05:14 3.1 °C 2.1 °C 1031.7 hPa Calm     90% 0 mm 0 W/m2
05:19 3.1 °C 2.1 °C 1031.7 hPa Calm     90% 0 mm 0 W/m2
05:24 3.1 °C 2.1 °C 1031.7 hPa Calm     90% 0 mm 0 W/m2
05:29 3.1 °C 2.1 °C 1031.7 hPa Calm   3.2 km/h 90% 0 mm 0 W/m2
05:34 3.1 °C 2.1 °C 1031.7 hPa Calm     90% 0 mm 0 W/m2
05:39 3.1 °C 2.1 °C 1031.7 hPa Calm     90% 0 mm 0 W/m2
Bath Spa Weather
Compliments of Weather Underground - 2 mb